Weather History for KHTS - May, 2013

Change the Weather History Date:

Monday, May 20, 2013

  Actual Average Record
Temperature  
Mean Temperature 74 °F 65 °F  
Max Temperature 83 °F 76 °F 95 °F (1934)
Min Temperature 64 °F 54 °F 35 °F (1907)
Degree Days  
Heating Degree Days 0 3  
Month to date heating degree days 63 88  
Since 1 July heating degree days 4496 4476  
Cooling Degree Days 9 3  
Month to date cooling degree days 55 40  
Year to date cooling degree days 98 72  
Growing Degree Days 23 (Base 50)    
Moisture  
Dew Point 66 °F    
Average Humidity 80    
Maximum Humidity 93    
Minimum Humidity 67    
Precipitation  
Precipitation 0.00 in 0.15 in 1.48 in (1952)
Month to date precipitation 1.04 2.96  
Year to date precipitation 13.04 16.34  
Snow  
Snow 0.00 in - - ()
Month to date snowfall 0.0  
Since 1 September snowfall 12.4  
Snow Depth 0.00 in    
Sea Level Pressure  
Sea Level Pressure 29.99 in    
Wind  
Wind Speed 4 mph (South)    
Max Wind Speed 9 mph    
Max Gust Speed -    
Visibility 10 miles    
Events      
T = Trace of Precipitation, MM = Missing Value Source: NWS Daily Summary

Daily Weather History Graph

Daily Weather History Graph

Search for Another Location

Airport or City:

Trip Planner

Search our weather history database for the weather conditions in past years. The results will help you decide how hot, cold, wet, or windy it might be!

Date:

Astronomy

May. 20, 2013 Rise Set
Actual Time 6:14 AM EDT 8:39 PM EDT
Civil Twilight 5:44 AM EDT 9:09 PM EDT
Nautical Twilight 5:07 AM EDT 9:46 PM EDT
Astronomical Twilight 4:26 AM EDT 10:28 PM EDT
Moon 3:49 PM EDT (5/20) 3:05 AM EDT (5/20)
Length of Visible Light 15h 24m
Length of Day
14h 24m
Waxing Gibbous, 75% of the Moon is Illuminated
May 20
Waxing Gibbous
May 25
Full
May 31
Last Quarter
Jun 8
New
Jun 16
First Quarter

Hourly Weather History & Observations

Time (EDT) Temp. Heat Index Dew Point Humidity Pressure Visibility Wind Dir Wind Speed Gust Speed Precip Events Conditions
12:51 AM 68.0 °F - 64.0 °F 87% 29.97 in 10.0 mi SSW 4.6 mph - N/A   Clear
1:51 AM 66.9 °F - 64.0 °F 90% 29.97 in 10.0 mi Calm Calm - N/A   Clear
2:51 AM 66.0 °F - 63.0 °F 90% 29.97 in 10.0 mi South 3.5 mph - N/A   Clear
3:51 AM 66.0 °F - 63.0 °F 90% 29.97 in 10.0 mi Calm Calm - N/A   Partly Cloudy
4:51 AM 66.0 °F - 63.0 °F 90% 29.97 in 10.0 mi South 3.5 mph - N/A   Partly Cloudy
5:51 AM 64.9 °F - 63.0 °F 93% 29.98 in 10.0 mi Calm Calm - N/A   Clear
6:51 AM 64.9 °F - 63.0 °F 93% 30.00 in 9.0 mi Calm Calm - N/A   Partly Cloudy
7:51 AM 66.9 °F - 63.0 °F 87% 30.01 in 10.0 mi South 3.5 mph - N/A   Mostly Cloudy
8:51 AM 68.0 °F - 63.0 °F 84% 30.03 in 10.0 mi Calm Calm - N/A   Overcast
9:16 AM 68.0 °F - 62.6 °F 83% 30.06 in 10.0 mi SSW 4.6 mph - N/A   Overcast
9:51 AM 69.1 °F - 63.0 °F 81% 30.05 in 10.0 mi SSW 6.9 mph - N/A   Overcast
10:29 AM 69.8 °F - 62.6 °F 78% 30.05 in 10.0 mi South 5.8 mph - N/A   Partly Cloudy
10:51 AM 71.1 °F - 64.0 °F 78% 30.04 in 10.0 mi SSW 4.6 mph - N/A   Partly Cloudy
11:51 AM 73.0 °F - 66.0 °F 79% 30.06 in 10.0 mi South 4.6 mph - N/A   Mostly Cloudy
12:51 PM 79.0 °F - 68.0 °F 69% 30.03 in 10.0 mi South 4.6 mph - N/A   Scattered Clouds
1:51 PM 80.6 °F 83.2 °F 68.0 °F 65% 30.03 in 10.0 mi South 9.2 mph - N/A   Scattered Clouds
2:51 PM 81.0 °F 83.8 °F 68.0 °F 65% 30.00 in 10.0 mi SSE 5.8 mph - N/A   Scattered Clouds
3:51 PM 81.0 °F 83.8 °F 68.0 °F 65% 29.99 in 10.0 mi SSW 6.9 mph - N/A   Clear
4:51 PM 80.6 °F 83.9 °F 69.8 °F 70% 29.98 in 10.0 mi South 9.2 mph - N/A   Clear
5:51 PM 81.0 °F 84.1 °F 69.1 °F 67% 29.96 in 10.0 mi SSW 5.8 mph - N/A   Clear
6:51 PM 81.0 °F 83.8 °F 68.0 °F 65% 29.94 in 10.0 mi South 6.9 mph - N/A   Clear
7:51 PM 79.0 °F - 68.0 °F 69% 29.94 in 10.0 mi South 4.6 mph - N/A   Clear
8:51 PM 75.9 °F - 66.9 °F 74% 29.95 in 10.0 mi SSE 4.6 mph - N/A   Clear
9:51 PM 75.0 °F - 69.1 °F 82% 29.95 in 10.0 mi SE 4.6 mph - N/A   Clear
10:51 PM 73.0 °F - 69.1 °F 87% 29.95 in 10.0 mi SE 3.5 mph - N/A   Clear
11:51 PM 72.0 °F - 68.0 °F 87% 29.94 in 9.0 mi South 3.5 mph - N/A   Clear